Home > Time Zones > World Clock > Weather > Fiji > Nadi > Past weeks

Flag for Fiji Weather past 2 weeks in Nadi, Fiji

Now
66 °F

Passing clouds.


Feels Like: 66 °F
Forecast: 71 / 80 °F
Wind: 2 mph from Northeast

Location: Nandi

Current Time: Jul 29, 2015 at 11:34:13 PM

Latest Report: Jul 29, 2015 at 11:00 PM


Visibility: N/A

Pressure: 29.98 "Hg

Humidity: 83%

Dew point: 61 °F

Location of NadiLocation

Historic Weather in Nadi — Graph

°F

Nadi temperature yesterday

Maximum temperature yesterday: 84 °F (at 1:00 PM)
Minimum temperature yesterday: 61 °F (at 3:00 AM)
Average temperature yesterday: 71 °F

Past Weeks' High & Low Weather Summary

 TemperatureHumidityPressure
High84 °F (Jul 20, 4:00 PM)100% (Jul 26, 4:00 AM)30.15 "Hg (Jul 26, 4:00 AM)
Low61 °F (Jul 26, 4:00 AM)40% (Jul 26, 1:00 PM)29.89 "Hg (Jul 29, 2:00 PM)
Average73 °F74%30.02 "Hg
* Reported Jul 14 10:00 PM — Jul 29 10:00 PM, Nadi, Weather by CustomWeather, © 2015

Note: Actual official high and low records may vary slightly from our data, if they occured in-between our weather recording intervals... More about our weather records

Advertising

Nadi weather history for previous 24 hours

 ConditionsComfort  
Time TempWeatherWind HumidityBarometerVisibility
10:00 PM
Wed, Jul 29
70 °FPassing clouds.6 mph73%29.98 "HgN/A
9:00 PM70 °FPassing clouds.9 mph78%29.98 "HgN/A
8:00 PM73 °FPassing clouds.5 mph78%29.98 "HgN/A
7:00 PM75 °FPassing clouds.8 mph65%29.95 "HgN/A
6:00 PM75 °FPassing clouds.2 mph69%29.92 "HgN/A
5:00 PM77 °FScattered clouds.8 mph61%29.92 "HgN/A
4:00 PM77 °FScattered clouds.9 mph65%29.89 "HgN/A
3:00 PM79 °FBroken clouds.13 mph65%29.89 "HgN/A
2:00 PM79 °FBroken clouds.10 mph65%29.89 "HgN/A
1:00 PM81 °FBroken clouds.13 mph62%29.92 "HgN/A
12:00 PM81 °FBroken clouds.9 mph58%29.95 "HgN/A
11:00 AM79 °FBroken clouds.9 mph61%29.98 "HgN/A
10:00 AM79 °FPartly sunny.5 mph58%30.01 "HgN/A
9:00 AM73 °FPartly sunny.No wind69%30.01 "HgN/A
8:00 AM70 °FPassing clouds.3 mph73%30.01 "HgN/A
7:00 AM64 °FPassing clouds.3 mph88%29.98 "HgN/A
6:00 AM61 °FPassing clouds.5 mph94%29.95 "HgN/A
5:00 AM63 °FPassing clouds.6 mph94%29.95 "HgN/A
4:00 AM63 °FPassing clouds.6 mph94%29.98 "HgN/A
3:00 AM63 °FPassing clouds.3 mph94%29.98 "HgN/A
2:00 AM63 °FPassing clouds.3 mph94%30.01 "HgN/A
1:00 AM64 °FPassing clouds.3 mph88%30.04 "HgN/A
12:00 AM66 °FPassing clouds.5 mph88%30.04 "HgN/A
11:00 PM
Tue, Jul 28
68 °FPassing clouds.3 mph83%30.04 "HgN/A
Weather by CustomWeather, © 2015

See weather overviewHow to use our weather pages